Location: Santa Maria Acquas
(39.6150°N, 8.7867°E)
Time: 11:19:03
(UTC+00:00)

Daily predictions for brighter satellites

Satellite Brightness Start Highest point End
(mag) Time Altitude Azimuth Time Altitude Azimuth Time Altitude Azimuth
CENTAUR R/B 3.4 19:10:30 10° NNW 19:18:53 86° NE 19:27:52 10° SSE
Cosmos 1656 4.1 19:14:26 10° NNW 19:19:55 50° ENE 19:25:18 10° SE
USA 267 4.3 19:15:29 10° ENE 19:20:08 20° ESE 19:24:46 10° SSE
Cosmos 1980 Rocket 4.1 19:17:06 10° NNE 19:20:14 15° NE 19:23:22 10° E
USA 32 4.2 19:17:18 10° N 19:22:27 54° E 19:27:33 10° SSE
Cosmos 1689 Rocket 3.9 19:26:07 10° N 19:28:39 33° WNW 19:31:09 10° SW
Cosmos 1869 3.2 19:25:40 10° N 19:29:33 79° E 19:33:23 10° S
USA 186 3.3 19:26:43 10° SSW 19:29:47 36° W 19:32:44 10° NNW
Cosmos 2058 3.6 19:26:13 10° SSE 19:29:59 35° E 19:33:49 10° NNE
deb Kosmos-1763 4.1 19:26:50 10° SSW 19:30:21 77° WNW 19:33:51 10° NNE
USA 238 DEB 4.0 19:25:21 10° NW 19:32:43 81° WSW 19:40:21 10° SSE
USA 306 2.9 19:28:25 10° NW 19:32:43 85° NE 19:36:35 12° SE
USA 238 4.0 19:25:27 10° NW 19:32:49 82° WSW 19:40:28 10° SSE
Cosmos 1634 Rocket 4.0 19:30:19 10° N 19:36:38 81° E 19:42:53 10° S
Cosmos 1825 2.1 19:33:17 10° S 19:36:59 65° E 19:40:43 10° NNE
SAR-Lupe-4 4.2 19:36:54 10° N 19:40:26 58° WNW 19:43:57 10° SSW
SJ-6B 3.7 19:37:11 10° S 19:40:48 46° W 19:44:24 10° NNW
Cosmos 2098 Rocket 4.1 19:41:30 13° E 19:41:57 13° E 19:43:25 10° ENE
Cosmos 405 Rocket 4.0 19:38:40 10° SSW 19:42:22 45° WNW 19:46:10 10° N
Resurs 01 Rocket 2.0 19:38:34 11° SE 19:42:40 48° ENE 19:46:57 10° N
Cosmos 1437 Rocket 2.7 19:44:34 10° N 19:48:24 84° W 19:52:17 10° S
OBJECT-B 3.0 19:45:58 10° SSW 19:48:39 25° W 19:51:22 10° NW
SPOT 1/Viking Rocket 4.3 19:45:55 14° SE 19:49:47 36° ENE 19:54:30 10° N
NOSS 2 (A) 4.0 19:47:26 10° NNW 19:50:00 66° NE 19:51:12 24° SE
IRS-1A Rocket 4.4 19:47:57 10° S 19:53:32 79° WSW 19:59:04 10° NNW
Cosmos-2242 4.4 19:50:14 10° NNW 19:54:12 37° W 19:58:06 10° SSW
RESURS DK-1 3.1 19:55:15 11° S 19:58:46 32° ESE 20:02:29 10° NE
Cosmos 44 Rocket 3.4 19:55:03 10° SSW 20:00:09 67° ESE 20:05:21 10° NE
BREEZE-M DEB (TANK) 3.9 19:59:14 10° NW 20:01:55 28° NNE 20:07:31 10° E
Ariane Rocket 3.3 19:57:27 10° S 20:02:29 67° WSW 20:07:33 10° NNW
SEDSat Delta rocket 4.0 20:05:35 10° SW 20:08:47 22° S 20:09:20 22° SSE
SPOT 5 4.2 20:07:14 16° E 20:08:51 20° ENE 20:12:00 10° NNE
Cosmos 783 Rocket 4.4 20:03:51 10° SSW 20:09:01 82° ESE 20:14:14 10° NNE
ARIANE 5 R/B 3.9 20:08:22 20° ESE 20:10:18 27° ENE 20:14:03 10° NNE
Cosmos 1437 2.4 20:09:58 10° NNW 20:12:43 73° W 20:13:57 29° S
Cosmos 1633 2.7 20:13:08 27° SSE 20:14:46 50° E 20:18:17 10° NNE
OAO 2 Rocket 3.6 20:10:32 10° W 20:15:20 47° S 20:17:44 26° SE
CZ-2C R/B 3.6 20:12:35 10° NNE 20:17:07 64° ESE 20:20:41 16° S
Cosmos 1697 Rocket 2.7 20:13:17 10° NNW 20:18:59 78° ENE 20:22:30 24° SSE
ERS-2 4.1 20:18:39 10° N 20:21:53 30° WNW 20:25:05 10° SW
ISS -0.8 20:20:57 10° NNW 20:22:20 12° N 20:23:43 10° NNE
JB-3 4.4 20:18:34 10° NNE 20:22:42 60° E 20:24:57 25° S
Cosmos 2082 Rocket 2.1 20:17:38 10° SSW 20:23:13 74° ESE 20:28:51 10° NNE
CARTOSAT-1 4.1 20:23:15 30° ESE 20:24:54 44° ENE 20:29:01 10° N
Cosmos 2221 2.5 20:21:53 10° N 20:26:12 82° W 20:28:46 24° S
Cosmos 1833 Rocket 3.6 20:22:09 10° SW 20:27:37 50° WNW 20:33:06 10° NNE
Cosmos 371 Rocket 4.3 20:24:34 10° N 20:28:52 31° ENE 20:30:30 25° E
Terra 3.1 20:29:10 22° E 20:30:35 26° ENE 20:34:29 10° NNE
SPOT 3 Rocket 3.8 20:26:51 18° S 20:30:43 70° WSW 20:35:57 10° NNW
USA 307 4.1 20:27:45 10° WNW 20:31:33 32° SW 20:33:17 23° S
Cosmos 2279 Rocket 4.5 20:27:11 10° NNW 20:33:14 58° W 20:39:08 11° S
BREEZE-M DEB (TANK) 3.3 20:30:11 10° WSW 20:33:30 78° NNW 20:44:44 10° ENE
Cosmos 1092 Rocket 4.3 20:30:54 26° SSE 20:34:01 47° E 20:40:00 10° NNE
Cosmos 1242 Rocket 4.2 20:32:14 10° NNW 20:35:25 30° W 20:37:56 14° SSW
Cosmos 773 Rocket 4.3 20:32:13 10° SSW 20:37:25 68° WNW 20:42:37 10° NNE
ATLAS 2AS CENTAUR R/B 3.6 20:37:57 10° SW 20:45:45 61° NW 20:53:27 10° NNE
Hubble Space Telescope 3.1 20:45:22 10° SW 20:45:58 12° SSW 20:45:58 12° SSW
Meteor 2-3 Rocket 3.8 20:47:27 35° SSE 20:49:37 56° E 20:55:10 10° NNE
Cosmos 1606 3.2 20:46:19 10° NNW 20:50:01 55° W 20:51:16 36° SSW
Cosmos 2369 3.7 20:47:30 10° NNW 20:53:09 78° WSW 20:55:33 36° S
Cosmos 2026 Rocket 4.2 20:51:04 34° SSE 20:53:38 54° E 20:59:46 10° NNE
ERBS 2.8 20:51:48 10° NNW 20:54:49 48° NE 20:54:49 48° NE
Centaur D AC-28 4.4 20:51:07 10° WSW 20:57:46 49° SSE 21:49:50 10° ESE
Centaur D AC-28 4.4 20:51:06 10° WSW 20:57:46 49° SSE 21:49:50 10° ESE
Centaur D AC-28 4.4 20:51:07 10° WSW 20:57:47 49° SSE 21:49:50 10° ESE
Cosmos 2151 2.9 20:57:41 48° S 20:58:50 87° W 21:03:07 10° N
Nadezhda 4 Rocket 4.3 20:54:23 12° SSW 21:00:01 63° W 21:06:10 10° N
Cosmos 1782 3.9 20:57:36 10° NNE 21:00:54 31° ENE 21:00:54 31° ENE
ERS-1 Rocket 2.9 21:00:53 47° SSE 21:02:18 77° ENE 21:07:21 10° N
Spot 2 Rocket 3.6 21:01:00 38° S 21:02:59 73° WSW 21:08:07 10° NNW
USA 267 3.2 20:57:06 10° NE 21:03:40 86° SE 21:10:14 10° SW
Cosmos 332 Rocket 4.4 20:59:32 10° N 21:04:09 41° ENE 21:04:54 38° E
GP-B 3.0 20:59:55 10° N 21:04:23 77° E 21:05:05 61° SSE
Cosmos 1980 Rocket 2.1 20:59:20 10° NNW 21:04:59 86° WSW 21:06:48 45° SSE
ATLAS 3B R/B 3.0 21:00:51 10° NNW 21:07:58 65° NE 21:11:03 37° ESE
Cosmos 2322 Rocket 3.7 21:07:39 10° N 21:12:10 24° NE 21:13:47 21° E
Cosmos 1538 Rocket 4.4 21:12:59 18° SW 21:16:52 60° WNW 21:22:01 10° NNE
Cosmos 1151 Rocket 3.7 21:13:33 10° N 21:17:20 40° ENE 21:17:20 40° ENE
Resurs 01 Rocket 4.2 21:16:57 10° SW 21:19:24 15° W 21:21:53 10° WNW
Okean 3 Rocket 4.0 21:20:47 48° ENE 21:20:47 48° ENE 21:24:38 10° NNE
Cosmos 158 Rocket 4.0 21:19:19 38° SSW 21:21:19 77° WNW 21:26:33 10° NNE
Cosmos 2292 Rocket 4.3 21:23:04 54° SE 21:23:54 60° E 21:30:34 10° NNE
Cosmos 1428 Rocket 4.4 21:23:34 39° SSW 21:26:05 82° W 21:32:14 10° N
Cosmos 1553 Rocket 4.0 21:28:00 10° N 21:33:58 56° E 21:34:51 52° ESE
H-2A R/B 3.6 21:30:26 10° NNE 21:34:07 68° NNE 21:34:07 68° NNE
USA 234 4.2 21:31:41 21° E 21:35:34 41° NNE 21:41:37 10° NW
SL-16 R/B 2.6 21:31:51 10° NNW 21:37:22 48° ENE 21:38:08 45° E
Cosmos 1271 Rocket 3.4 21:39:19 10° NNW 21:42:41 53° WNW 21:42:41 53° WNW
ARIANE 5 R/B 4.2 21:45:54 26° WSW 21:46:39 27° W 21:50:29 10° NW
SPOT 5 3.7 21:46:28 33° WSW 21:46:43 34° W 21:50:40 10° NNW
Cosmos 304 Rocket 3.9 21:48:23 10° NNW 21:52:54 69° W 21:52:54 69° W
Cosmos 1408 Rocket 4.4 21:57:11 44° NNE 21:57:11 44° NNE 22:00:18 10° NNE
ISS -1.4 21:56:57 10° NW 21:58:48 24° N 21:58:48 24° N
Cosmos 1417 Rocket 4.4 21:54:04 10° N 22:00:26 77° E 22:01:06 69° SE
S3M 4.0 21:54:54 10° N 22:01:14 63° E 22:01:50 60° ESE
COBE Rocket 4.4 22:06:55 47° NE 22:06:55 47° NE 22:10:42 10° N
Meteor 2-14 Rocket 4.5 22:05:49 60° SW 22:06:52 74° W 22:13:03 10° N
Terra 3.0 22:08:03 32° W 22:08:11 32° W 22:12:26 10° NNW
Cosmos 2056 Rocket 3.8 22:14:26 10° NNW 22:19:23 62° NE 22:19:23 62° NE
Cosmos 1515 Rocket 4.4 22:15:48 10° N 22:19:04 49° N 22:19:04 49° N
Cosmos 2333 Rocket 3.7 22:16:09 10° N 22:20:43 24° NE 22:21:44 23° ENE
Gbstr 26 Del rocket 4.3 22:17:49 10° NW 22:20:51 35° N 22:20:51 35° N
ALOS 2 4.0 22:26:42 32° NE 22:26:42 32° NE 22:29:37 10° N
Cosmos 2360 Rocket 2.5 22:22:22 10° NNW 22:27:47 55° ENE 22:27:47 55° ENE
Cosmos 1371 Rocket 4.3 22:35:20 10° NNW 22:39:57 63° NW 22:39:57 63° NW
Cosmos 2322 Rocket 2.9 22:51:03 10° NW 22:55:35 45° WNW 22:55:35 45° WNW
ATLAS 3B R/B 4.1 22:52:27 10° WNW 22:58:12 26° WSW 22:58:17 26° WSW
Cosmos 2285 Rocket 4.5 22:52:26 10° N 22:58:32 49° ENE 22:58:54 49° ENE
Cosmos 2315 Rocket 3.9 22:56:50 10° N 23:03:02 80° WNW 23:03:02 80° WNW
Meteor 1-27 Rocket 4.3 23:10:34 10° NNW 23:15:18 50° WNW 23:15:18 50° WNW
USA 234 3.4 23:19:01 60° WSW 23:19:01 60° WSW 23:24:51 10° NW
COSMOS 2428 3.4 23:12:55 10° NNW 23:18:24 45° ENE 23:18:24 45° ENE
Cosmos 2333 4.4 23:12:58 10° NNW 23:17:46 65° N 23:17:46 65° N
SL-16 R/B 3.9 23:16:46 10° NW 23:19:59 21° W 23:19:59 21° W
Cosmos 2219 Rocket 2.5 23:19:31 10° NNW 23:24:30 59° NE 23:24:30 59° NE
SL-08 ROCKET BODY 4.4 23:29:43 75° NNE 23:29:43 75° NNE 23:35:19 10° N
SL-08 R/B 4.5 23:31:53 75° ENE 23:31:53 75° ENE 23:37:45 10° N
Thor Agena Rocket 4.1 23:29:09 10° NNE 23:32:59 53° NNE 23:32:59 53° NNE
Cosmos 489 Rocket 4.5 23:34:51 79° NW 23:34:51 79° NW 23:41:01 10° NNE
COSMOS 2455 3.0 23:35:08 67° NW 23:35:08 67° NW 23:40:57 10° NNE
Cosmos 1745 Rocket 4.0 23:46:52 69° ENE 23:46:52 69° ENE 23:52:47 10° NNE
Cosmos 1452 Rocket 4.5 23:47:35 10° NNW 23:51:09 40° NW 23:51:09 40° NW
